Погода в Карсон-Сити

США     39°08′54″N   119°45′15″W
темп.,
°C
ветер,
м/с
пор.,
м/с
влажн.,
%
обл.,
%
осадки,
мм/ч
давл.,
гПа
погр.,
м
15 мая, сб
сб1523:00+13з2234100 0.0 100929
02:00+11зюз22322 0.0 100911
05:00+9зюз223696 0.0 100812
08:00+13зсз1229100 0.0 1009293
11:00+17ссв4421100 0.1 10073060
14:00+15с243386 0.1 10081826
17:00+14с6644100 0.4 10071497
20:00+10з2467100 0.9 1010682
16 мая, вс
вс1623:00+8юз1283100 5.6 1011426
02:00+8юз2278100 3.1 1010354
05:00+7ю2287100 6.1 1010236
08:00+7ю3387100 5.8 1012345
11:00+8юз228297 7.1 1014323
14:00+15всв13495 0.0 10101487
17:00+19ссз36275 0.0 10072674
20:00+16з334766 0.2 1009144
17 мая, пн
пн1723:00+11ююз337584 1.8 1014289
02:00+11зюз32797 0.3 101340
05:00+10з32744 0.3 101425
08:00+14зюз11550 0.0 1013236
11:00+19св02312 0.0 10122040
14:00+22в142145 0.0 10093218
17:00+21зюз973072 0.0 10102271
20:00+17зюз333880 0.1 101242
18 мая, вт
вт1823:00+14зюз324992 0.1 101334
02:00+12з2252100 0.0 101319
05:00+11зюз2249100 0.0 101417
08:00+14зюз12405 0.0 1014252
11:00+19юз34241 0.0 10122049
14:00+22зюз97201 0.0 10092570
17:00+20зюз109220 0.0 10091396
20:00+15зюз34360 0.0 1010224
19 мая, ср
ср1923:00+12з335235 0.0 101250
02:00+10зюз335182 0.0 101134
05:00+9зюз334234 0.0 101030
08:00+13юз48320 0.0 1009957
11:00+16юз1213315 0.0 10071814
14:00+15зюз131535100 0.0 10061670
17:00+12зюз141745100 0.0 10061473
20:00+8зюз61359100 0.0 10071400